Find Starlink 5853

NORAD ID: 56881 Int'l Des: 2023-083 Owner: SPXS Country: US Constellation: starlink operational
LEOCIRCULAR

Live-Position

3D-Globus wird geladen...

Über Starlink 5853

Beschreibung wird geladen...

Nächste Überflüge

Passes for default location (London). Set your location on the main map for personalized predictions.

Höhenverlauf

Loading altitude history...

Zweizeiliger Elementsatz

1 56881U 23083F 26125.48846128 .00002024 00000-0 85111-4 0 9999
2 56881 43.0043 124.7103 0000853 270.5293 89.5460 15.26739277160318
Epoch: 5. Mai 2026 • Age: 24 hours

Aktueller Status

Höhe 487.7 km
Geschwindigkeit 7.63 km/s
Subsatellitenpunkt 35.97°N, 132.47°E
Startdatum 12. Juni 2023
Alter 2.8 years
Typ internet

Technische Details

Klassifizierung Payload
Masse 305.00 kg
Trockenmasse 290.00 kg
Gesamtmasse 305.00 kg
Länge 0.20 m
Durchmesser 2.80 m
Spannweite 9.00 m
Form Box + pan
Hersteller SPXS
Bus-Typ Starlink
Phasenstatus In Orbit
Besitzer/Staat SPXS/US

Most Searched